Regional Weather Roundup
Issued by NWS

Home | Current Version | Previous Version | Graphics & Text | Print | Product List | Glossary On
Versions: 1 2 3 4 5 6 7 8 9 10 11 12 13 14 15 16 17 18 19 20 21 22 23 24 25 26 27 28 29 30 31 32 33 34 35 36 37 38 39 40 41 42 43 44 45 46 47 48 49 50
109
ASUS45 KBOI 022210
RWRID

IDAHO REGIONAL WEATHER ROUNDUP
NATIONAL WEATHER SERVICE BOISE ID
300 PM MST FRI DEC 02 2016

NOTE: "FAIR" INDICATES FEW OR NO CLOUDS BELOW 12000 FEET
WITH NO SIGNIFICANT WEATHER AND/OR OBSTRUCTIONS TO VISIBILITY

IDZ012-014-022300-
SOUTHWEST IDAHO


CITY           SKY/WX    TMP DP  RH WIND       PRES   REMARKS
BOISE          SUNNY     38  22  52 N3        30.35F
CALDWELL       SUNNY     40  24  53 CALM      30.36F
MOUNTAIN HOME  MOSUNNY   33  25  70 CALM      30.35F
$$

IDZ016-017-022300-
SOUTHCENTRAL IDAHO


CITY           SKY/WX    TMP DP  RH WIND       PRES   REMARKS
BURLEY         PTSUNNY   34  21  60 W7        30.29S WCI  28
JEROME         MOSUNNY   31  24  75 SW10      30.31F WCI  22
TWIN FALLS     MOSUNNY   33  23  66 W10       30.30F WCI  25
$$

IDZ019>023-022300-
SOUTHEAST IDAHO


CITY           SKY/WX    TMP DP  RH WIND       PRES   REMARKS
IDAHO FALLS    CLOUDY    25  20  81 SW10      30.28S WCI  15
POCATELLO      CLOUDY    27  21  78 W8        30.30F WCI  19
REXBURG        CLOUDY    24  19  81 S5        30.26F WCI  18
$$

IDZ006-010-011-018-031-032-022300-
CENTRAL IDAHO MOUNTAINS


CITY           SKY/WX    TMP DP  RH WIND       PRES   REMARKS
MCCALL         PTSUNNY   21  14  74 S6        30.23F WCI  13
HAILEY         SUNNY     27  19  74 SE12      30.24S WCI  16
STANLEY          N/A     27  10  49 VRB3      30.20S
SALMON         SUNNY     36  16  44 N5        30.21F WCI  32
CHALLIS        SUNNY     32  15  49 CALM      30.20F
$$

IDZ002-004-006-007-026-022300-
NORTHERN IDAHO


CITY           SKY/WX    TMP DP  RH WIND       PRES   REMARKS
LEWISTON       CLOUDY    37  32  82 CALM      30.27F HAZE
LOWELL           N/A     40  36  86 CALM      30.32F
COEUR D`ALENE  CLOUDY    36  32  85 S7        30.21F WCI  30
MULLAN PASS    CLOUDY    20  18  92 VRB7      30.09F WCI  11
$$




USA.gov is the U.S. government's official web portal to all federal, state and local government web resources and services.